RH
42 44 47 49 53 59 62 59 63 65 62 62 58 57 55 53 53 49 51 52 50 48 45 43 41 40 39 39 37 34 33 33 34 35 34 27 21 21 19 17 16 15 14 13 12 12 13 12 12 12 12 12 11 10 9 9 8 8 8 8 9 9 12 14 15 16 16 15 19 21 19 21 22 18 14 10 12 13 11 11 12 11 13 18 21 26 28 27 29 28 28 29 29 30 29 30 31
40 40 42 46 51 56 57 55 63 63 58 58 53 54 53 51 51 50 54 53 48 43 40 39 37 36 34 33 30 29 28 27 27 27 25 22 21 20 18 16 16 15 13 12 13 13 12 12 12 12 12 12 11 11 9 9 9 9 9 8 9 9 11 13 14 13 13 15 16 16 14 15 16 13 11 10 11 10 9 9 9 9 11 14 16 21 24 24 24 22 23 27 29 29 30 31 28
41 41 42 46 50 50 52 53 59 59 57 55 49 52 52 50 51 52 52 47 41 36 35 34 33 32 30 30 28 28 26 24 22 22 22 20 19 18 16 15 15 14 12 12 13 13 12 12 12 13 12 12 11 11 10 9 9 9 9 9 9 9 10 11 12 12 13 15 14 13 12 12 12 11 10 10 10 9 9 8 9 9 9 12 14 17 21 22 20 17 15 20 27 29 29 32 27
42 43 43 45 46 47 51 52 55 57 54 52 49 51 51 50 49 47 44 37 34 32 30 29 29 28 28 30 28 26 23 21 21 21 20 18 17 16 15 14 14 13 12 13 13 13 12 13 13 13 13 13 13 12 11 10 9 9 10 10 10 10 10 11 11 11 12 14 14 12 12 11 11 11 10 10 9 9 9 8 8 8 8 11 14 19 23 24 20 14 11 15 23 28 29 32 27
39 41 41 41 43 44 48 50 53 54 49 51 50 49 50 50 48 45 39 34 33 29 26 26 27 27 26 27 25 24 22 20 19 18 17 15 15 15 14 14 13 13 13 13 13 13 13 13 13 14 14 14 14 13 12 11 10 10 10 10 10 11 11 11 11 12 12 13 13 12 12 12 12 11 11 10 10 9 9 9 8 9 9 11 17 22 25 24 17 12 13 14 19 25 29 31 27
34 35 36 37 39 40 45 47 50 49 47 50 48 45 48 49 46 44 39 33 29 25 25 25 26 25 24 23 22 21 19 17 16 14 14 13 14 14 14 13 13 13 14 14 13 13 13 14 14 14 14 15 15 14 13 12 11 11 11 11 10 11 11 11 12 12 12 13 13 13 12 12 12 11 11 10 10 9 9 9 8 9 9 12 20 25 23 20 13 11 15 15 16 20 26 29 25
27 30 32 35 37 39 44 45 46 46 45 47 46 44 45 45 42 40 36 29 25 25 26 26 25 25 23 20 18 17 15 15 13 13 12 12 13 13 13 13 13 13 14 14 13 13 14 14 14 15 15 15 15 15 14 13 13 12 11 11 10 10 10 11 11 11 12 13 13 13 13 13 13 12 12 11 10 9 9 8 8 9 9 12 19 24 20 14 10 9 12 13 14 15 21 25 21
22 25 29 34 38 39 42 43 43 45 43 44 44 41 39 39 37 35 32 26 24 26 26 25 23 22 21 18 16 14 13 13 12 12 12 12 12 12 13 13 13 14 14 14 13 14 14 14 15 15 15 15 15 15 15 14 13 12 12 11 11 10 10 11 10 11 11 12 12 13 13 14 14 14 13 13 12 11 10 10 9 9 9 11 15 18 14 10 9 10 10 12 12 12 17 20 16
19 23 28 33 37 39 41 41 40 40 40 40 40 37 34 33 31 29 29 27 27 27 25 23 20 20 20 18 16 14 13 13 12 12 11 11 12 12 12 13 14 14 14 13 13 13 14 14 15 15 15 15 15 15 15 14 14 13 13 12 12 11 11 11 11 11 11 11 12 12 13 14 14 14 14 14 14 14 13 13 12 12 12 12 12 13 11 11 11 10 11 11 11 12 14 15 13
17 22 28 34 37 39 40 37 35 35 34 35 33 29 26 25 25 26 29 29 28 25 22 21 20 20 19 18 15 13 13 12 12 12 11 11 11 12 13 13 14 14 13 13 13 13 14 14 15 15 15 15 15 15 15 14 14 14 14 13 13 13 13 12 12 12 12 12 12 12 12 13 13 14 15 15 15 15 15 14 14 14 14 14 14 14 14 14 14 14 13 13 13 13 14 13 11
19 21 25 32 36 37 38 34 30 28 28 29 25 20 20 21 23 25 27 26 24 23 21 21 22 20 20 18 14 12 12 12 11 11 11 11 12 13 13 14 14 14 13 13 13 14 14 15 15 15 15 15 15 16 15 15 15 15 14 14 14 14 14 13 13 13 13 13 13 13 12 13 13 13 14 14 14 14 14 14 14 14 14 14 14 14 15 15 16 16 16 16 16 15 15 14 13
22 28 28 31 34 34 36 33 26 25 23 22 19 17 19 20 22 23 24 24 22 23 22 21 20 18 21 20 14 12 12 11 11 11 12 13 13 13 14 15 14 14 14 13 14 14 15 15 15 16 15 15 16 16 16 16 16 15 15 15 15 15 15 15 15 14 14 14 14 14 13 13 13 13 13 13 13 13 12 12 12 12 12 12 12 13 13 14 15 16 16 17 17 17 17 16 16
22 30 31 30 32 32 30 27 25 24 19 17 16 15 18 20 21 21 22 23 23 23 21 19 19 17 18 18 14 12 12 11 12 12 12 13 14 14 15 15 15 14 14 14 15 15 15 15 16 16 16 16 16 17 17 17 17 16 16 16 16 16 16 17 16 15 15 15 15 14 14 14 14 13 13 12 13 12 12 11 11 10 10 10 10 11 11 12 13 13 14 15 16 16 17 17 16
20 24 26 27 30 29 26 23 21 20 15 15 15 14 18 20 19 20 21 22 21 21 19 16 17 17 16 16 13 12 12 11 12 13 12 14 15 16 16 16 15 14 14 14 15 15 16 16 17 17 17 17 17 18 18 18 18 18 18 17 17 17 17 17 16 15 16 16 15 15 14 14 14 14 13 13 12 12 12 11 11 10 10 10 9 9 10 10 11 11 12 13 14 15 16 16 16
18 20 23 23 24 24 22 20 19 16 14 15 15 17 20 19 18 19 19 20 19 17 17 16 16 16 16 15 14 11 11 12 12 12 13 14 15 17 17 16 16 15 15 15 15 16 16 17 17 18 17 18 18 18 19 19 20 19 19 19 18 18 18 18 18 17 16 15 15 15 15 15 15 14 14 13 13 13 12 11 10 10 10 9 9 9 9 9 10 11 12 13 14 15 15 16 16
15 17 22 21 20 20 18 18 18 16 16 18 17 19 21 18 18 19 18 18 18 16 17 16 16 16 14 13 13 12 12 12 12 12 13 14 15 16 17 17 17 16 16 16 16 16 17 17 18 18 18 18 19 19 20 20 21 21 21 20 20 19 19 19 19 18 16 16 16 16 15 16 15 15 14 14 13 13 13 11 10 10 9 9 9 9 9 9 10 11 12 13 14 15 15 15 15
12 14 19 18 19 18 16 18 19 16 18 20 18 18 22 20 18 18 17 18 18 17 17 16 16 15 14 13 13 13 13 12 13 13 13 14 14 16 17 17 18 17 17 16 17 17 17 17 18 19 19 19 20 20 21 21 22 22 22 22 21 21 20 19 19 18 17 17 16 16 16 16 16 15 15 14 13 14 14 11 10 10 9 9 9 9 9 10 11 12 13 14 15 16 16 15 15
12 15 16 16 19 18 18 20 20 18 18 19 18 18 22 21 18 17 16 16 16 16 15 15 16 14 13 13 13 14 13 13 14 14 13 14 14 15 15 16 17 17 17 17 17 18 18 18 18 19 20 20 21 21 22 22 23 23 23 23 22 21 20 19 19 18 17 17 17 17 17 17 17 16 15 15 14 15 14 11 10 10 10 10 10 10 10 11 12 14 14 15 16 17 16 15 15
13 18 16 18 21 18 18 21 20 19 18 19 18 17 21 19 17 16 16 16 16 16 15 14 14 12 11 11 12 12 13 13 14 14 14 14 14 15 15 15 15 16 17 17 17 18 18 18 19 20 20 21 21 22 23 23 24 24 24 23 23 22 21 20 19 19 18 18 18 18 18 18 18 17 16 16 15 15 14 12 11 10 10 10 10 11 11 12 14 14 15 16 16 17 16 15 15
12 14 17 22 24 20 19 19 19 18 17 19 18 17 19 17 16 16 16 17 16 17 15 14 13 10 10 10 11 12 12 13 14 14 15 15 15 15 15 15 15 15 16 16 17 18 18 19 20 20 20 21 22 23 24 24 25 25 24 23 23 22 21 21 20 20 20 20 19 19 19 19 19 18 18 17 16 16 15 13 12 11 11 11 12 12 13 14 15 15 16 16 16 16 16 16 15
14 16 21 24 24 22 19 18 18 17 17 17 16 17 16 14 15 15 16 16 15 14 12 12 12 10 10 11 12 13 13 13 14 14 15 15 16 16 16 16 16 16 17 17 18 18 18 19 20 21 21 22 23 24 24 25 25 23 23 23 23 23 22 22 21 21 21 21 21 20 20 20 20 20 19 19 18 17 16 15 14 12 12 13 14 14 15 16 16 17 17 17 16 16 16 17 16
18 20 22 22 21 19 17 16 16 15 15 16 16 16 14 12 13 13 14 16 14 12 10 10 11 10 10 10 11 12 13 13 14 14 14 14 15 16 16 16 16 17 17 18 18 18 18 19 20 21 22 22 23 23 24 24 23 23 23 24 24 24 23 24 23 23 23 23 22 21 21 21 22 21 21 21 20 20 18 17 15 14 14 14 15 16 17 18 18 18 17 17 16 16 17 18 17
20 22 21 19 18 17 15 15 16 15 15 15 15 14 12 12 13 12 13 15 14 11 10 11 10 10 10 10 10 10 11 12 13 13 13 13 14 15 16 16 16 16 17 17 17 18 19 19 20 22 23 23 23 24 24 24 23 24 25 25 24 25 25 25 25 25 25 24 23 23 23 22 22 22 22 22 22 21 20 18 17 16 16 16 17 17 18 19 19 18 18 17 17 17 18 18 18
18 21 20 17 17 16 15 17 17 16 14 13 13 13 13 14 14 13 13 13 12 11 10 10 10 10 10 11 10 10 10 10 11 11 12 13 12 13 15 16 15 16 17 17 18 19 20 21 21 22 23 24 25 25 25 24 24 25 25 25 25 26 26 26 26 26 26 25 25 24 23 23 23 22 23 23 22 22 22 20 18 17 17 17 17 18 19 20 20 20 19 18 18 18 19 19 19
17 18 17 16 16 16 16 16 15 14 13 12 14 15 14 14 14 14 13 11 10 10 10 10 11 11 11 11 11 11 11 11 11 11 12 12 12 13 15 17 18 18 18 18 19 20 20 21 22 23 24 25 26 27 26 26 26 26 26 26 27 28 28 27 27 26 27 26 26 24 23 23 23 23 23 23 23 22 23 21 20 19 18 17 18 18 19 20 21 21 21 20 19 19 19 20 20
16 16 15 15 15 15 15 14 13 12 13 12 14 15 14 13 14 14 12 10 10 11 12 13 12 12 13 13 13 13 13 13 13 13 13 13 13 13 14 17 19 19 19 19 20 21 22 23 23 24 25 27 28 28 27 27 28 27 28 28 29 30 29 27 27 27 28 27 27 26 25 25 25 24 25 25 24 24 24 23 23 21 20 18 18 18 18 19 20 21 22 23 21 20 20 21 21
15 16 15 16 15 13 13 12 12 12 12 11 12 13 13 12 14 15 11 10 12 13 13 12 13 14 14 14 14 14 14 13 13 14 14 14 14 14 14 16 18 19 20 21 21 21 23 24 25 26 27 29 29 29 29 29 30 29 30 30 31 31 30 28 27 27 28 28 28 27 27 27 27 27 27 27 26 26 26 25 25 24 23 21 19 18 18 18 19 20 21 23 24 23 22 22 22
15 14 14 17 14 11 12 12 12 12 10 11 12 13 13 13 16 16 12 11 13 13 13 12 13 15 15 15 15 15 14 14 14 14 14 14 15 15 15 17 18 19 21 22 22 22 23 24 25 27 28 30 30 30 30 31 32 32 31 31 32 32 30 28 27 28 29 28 28 28 28 29 29 30 30 29 29 28 27 27 27 27 26 24 21 20 19 19 19 19 20 22 24 25 24 24 24
15 13 14 18 16 12 12 12 12 12 11 11 11 12 11 14 17 14 11 12 12 12 12 13 15 16 16 16 15 14 13 13 13 14 14 15 16 17 17 19 21 21 22 22 23 23 24 25 27 29 30 31 31 31 33 34 35 35 33 32 33 33 30 28 28 30 30 30 30 29 31 32 32 33 33 33 32 31 30 29 29 29 28 26 23 21 21 21 22 21 21 21 23 26 26 26 26
13 14 17 19 15 11 11 12 13 11 12 11 11 12 10 12 14 12 12 13 12 12 12 13 15 15 15 14 13 12 12 12 12 13 14 16 18 19 19 20 22 21 22 23 23 24 25 26 28 30 31 32 32 33 35 36 37 38 36 35 34 33 31 31 31 32 32 33 33 33 34 35 35 36 37 37 36 35 34 33 32 32 31 28 25 24 24 24 25 24 23 22 23 25 27 27 27
15 17 21 22 14 12 13 14 14 13 12 11 11 15 14 12 12 11 12 14 14 15 14 15 16 15 14 13 12 11 11 12 13 15 16 18 19 19 19 20 21 22 22 23 24 25 26 27 29 30 32 33 33 35 37 39 40 40 39 37 36 35 34 34 34 35 37 36 37 37 37 37 38 39 40 40 40 40 39 38 37 37 36 33 29 28 27 28 28 27 26 25 24 25 28 29 28
21 15 17 22 15 14 15 13 16 16 13 12 11 16 18 15 15 13 12 14 15 16 16 17 17 15 15 14 13 12 12 14 16 18 20 20 20 19 18 19 21 23 23 24 25 27 28 29 30 31 33 34 35 37 39 41 42 41 39 38 37 37 37 37 38 40 40 40 40 40 40 40 42 42 43 44 44 43 43 42 42 41 40 37 35 33 32 32 33 32 32 30 28 27 29 30 30
24 17 15 19 17 16 15 13 18 18 14 14 14 16 17 16 15 13 12 14 16 15 16 19 18 16 17 17 15 14 15 15 15 17 19 20 21 21 20 20 22 24 26 27 29 29 31 32 33 33 34 35 36 38 39 41 43 42 40 40 39 39 39 39 39 40 39 39 39 39 41 43 44 45 45 46 46 45 45 45 45 44 43 40 38 36 35 37 37 37 38 39 35 32 32 33 33
21 21 19 20 19 18 16 13 17 18 15 16 18 17 17 17 17 14 13 15 16 16 17 20 20 19 19 19 17 16 16 16 16 16 17 18 19 21 22 22 24 26 29 32 33 33 33 34 35 35 37 38 39 40 41 42 44 44 42 41 40 38 38 38 37 36 35 35 35 35 38 41 44 46 48 49 49 48 47 46 47 46 45 43 40 39 39 40 41 41 43 44 43 39 38 39 39
19 21 21 22 21 19 18 15 16 18 17 17 18 17 17 18 18 17 16 17 16 17 20 22 22 21 21 20 20 20 19 19 20 19 19 19 19 20 21 21 23 25 28 32 34 35 36 36 37 38 41 44 44 43 44 46 47 46 45 43 40 38 37 35 32 31 31 30 31 33 35 38 41 44 46 49 49 49 48 48 48 48 47 45 43 42 42 42 43 44 45 46 47 46 43 44 46
20 21 22 23 23 21 18 18 20 21 18 17 17 17 17 19 19 18 17 17 18 20 22 23 23 23 22 23 23 23 22 21 21 21 22 22 22 22 21 21 21 22 23 26 29 33 37 39 39 41 46 50 53 54 54 55 53 50 47 44 39 36 33 31 30 30 30 29 29 31 33 35 37 40 42 44 45 46 47 47 48 48 48 47 45 44 45 47 48 47 47 47 49 49 46 46 48
22 23 25 25 25 22 16 17 22 22 19 20 21 21 21 22 21 19 17 17 19 20 22 23 24 23 23 24 25 24 23 21 20 21 23 24 25 24 23 23 23 23 24 25 27 30 35 38 40 42 44 47 50 53 53 50 47 44 41 37 33 32 31 31 30 30 29 29 29 28 30 32 34 34 36 38 40 43 44 44 45 45 46 46 45 44 45 48 50 51 50 49 51 52 49 48 48
25 25 26 25 22 19 14 16 21 22 20 20 21 22 21 22 21 18 18 19 20 21 23 25 25 25 25 26 26 25 23 21 19 20 22 24 26 25 24 25 25 26 26 27 27 29 31 33 37 39 40 41 42 43 43 42 41 40 37 34 32 32 33 32 31 30 30 29 29 28 29 31 31 31 32 33 36 40 43 42 41 42 43 43 42 42 41 43 48 53 54 53 55 56 54 52 50
24 24 23 20 19 18 17 18 22 22 19 21 23 22 21 21 21 19 20 21 24 25 27 27 27 26 26 26 27 26 25 23 21 21 21 23 26 27 27 28 28 28 27 28 29 30 31 31 32 33 34 36 37 38 39 40 41 42 41 38 36 36 35 35 34 33 32 31 30 30 30 31 32 32 32 32 33 35 38 38 37 39 40 40 39 39 38 39 44 50 54 55 56 58 59 57 55
21 21 20 18 18 20 18 18 22 22 21 24 25 23 23 21 20 20 21 23 27 29 29 28 27 27 28 28 28 28 28 27 26 25 24 25 27 29 30 31 32 32 31 31 33 33 34 34 32 32 32 32 34 36 38 39 40 40 41 40 40 41 40 40 38 37 36 34 33 33 33 33 34 34 34 34 33 33 34 35 35 36 38 38 37 37 37 38 42 48 51 52 54 58 61 62 62
21 21 20 18 20 22 20 20 22 21 23 26 23 20 21 20 20 23 22 23 27 28 29 28 27 27 29 30 30 30 32 33 32 30 29 29 30 32 33 35 38 38 37 37 37 38 38 38 37 36 36 35 36 37 38 39 40 40 39 39 41 41 41 40 40 40 39 36 34 34 35 35 35 34 34 34 33 33 33 34 34 34 36 38 37 36 38 41 44 48 51 52 53 58 62 63 65
21 22 21 19 21 23 22 23 23 19 20 23 22 22 22 20 23 26 24 24 25 24 26 27 26 27 28 30 31 33 36 38 40 38 35 34 33 35 36 38 41 41 41 41 42 42 43 43 43 43 43 43 42 42 41 42 42 42 42 42 42 42 40 39 40 40 38 35 34 33 35 37 36 34 33 33 34 34 34 35 35 35 37 40 42 40 40 43 46 49 53 54 53 57 62 64 67
20 20 22 22 24 23 22 24 23 19 18 20 22 24 24 22 24 27 26 26 26 25 26 27 27 29 32 34 34 35 37 39 42 43 43 41 39 40 41 42 45 45 44 44 45 47 48 48 48 48 49 50 50 50 50 49 49 48 47 46 45 45 43 40 40 40 38 37 35 34 36 39 38 36 35 35 35 36 37 38 39 40 40 43 47 46 45 48 52 53 55 56 55 55 58 64 71
19 20 23 24 23 21 22 23 23 23 21 20 24 26 26 25 25 27 28 28 29 29 28 28 30 32 35 37 37 37 38 39 41 43 46 49 49 49 49 49 51 52 51 49 50 51 53 53 54 54 54 54 54 56 57 56 55 54 52 51 49 48 47 45 45 45 44 43 41 39 39 41 43 41 39 37 36 37 38 39 42 43 43 46 51 52 52 55 59 59 57 57 57 55 56 63 69
20 23 24 24 23 23 25 26 28 30 23 17 23 26 26 25 23 26 28 28 30 32 32 32 33 34 36 37 38 38 39 39 40 43 47 52 56 57 58 59 59 60 62 62 61 61 61 61 61 60 59 59 59 60 61 61 60 58 57 56 55 53 52 50 49 50 49 48 46 44 43 45 47 48 45 41 39 39 40 42 43 44 46 50 54 57 58 60 62 62 60 59 58 60 64 66 65
21 24 22 22 25 26 27 29 30 30 24 18 21 24 23 23 25 29 29 31 34 35 36 36 35 36 37 39 40 41 41 42 42 45 49 53 58 60 61 65 67 68 70 72 74 73 73 72 71 70 68 66 65 65 64 64 64 63 63 61 60 58 57 55 54 52 52 52 51 50 48 47 49 51 51 49 45 44 44 45 46 47 50 54 57 60 62 62 63 64 62 61 62 64 67 66 64
21 23 19 16 20 23 27 30 26 22 22 21 21 23 23 24 32 37 35 38 42 43 41 39 38 40 41 43 44 45 46 47 47 49 50 54 60 64 66 69 71 73 73 73 77 79 79 79 78 79 79 78 75 72 70 67 67 68 68 67 65 62 62 62 61 57 55 55 55 56 55 53 52 54 56 56 53 51 49 48 49 51 53 56 59 62 63 64 66 66 63 61 63 63 63 63 63
22 22 19 15 16 19 27 30 24 19 20 19 21 25 24 28 38 42 41 43 46 48 46 45 45 46 47 49 50 51 53 54 55 55 54 54 57 63 69 72 71 71 68 66 69 74 78 80 81 83 84 86 86 84 81 77 74 73 73 72 70 68 68 68 67 64 62 60 58 58 58 58 59 59 60 61 61 59 55 51 52 54 57 60 62 64 65 66 68 68 64 62 63 63 65 66 65
21 22 22 25 29 27 26 27 27 25 21 16 21 27 27 33 42 45 46 47 46 49 51 51 52 52 53 55 56 58 59 61 62 62 62 59 58 61 67 70 66 60 57 57 59 64 70 75 78 80 81 83 85 86 86 86 84 83 81 79 76 74 73 74 73 70 67 66 64 60 60 63 65 64 64 64 64 63 59 55 55 59 64 65 67 68 68 69 69 67 65 63 64 65 70 72 68
23 24 25 31 38 36 32 33 33 31 24 17 20 29 35 42 47 46 47 47 48 51 54 55 57 58 61 62 63 64 64 66 67 67 68 69 67 66 67 69 67 60 55 53 53 55 58 62 66 72 75 76 78 80 81 82 84 86 86 85 84 82 80 79 78 74 69 69 69 65 63 66 69 69 68 66 67 66 63 59 59 63 70 70 69 70 71 71 70 68 64 63 65 67 73 75 71
25 28 27 29 33 36 40 41 38 35 30 24 23 30 38 43 46 47 46 47 52 56 58 61 63 64 65 63 62 63 63 63 62 61 63 67 68 68 67 68 68 64 59 56 56 55 52 51 55 61 67 70 73 75 75 76 77 79 81 83 86 86 87 85 82 76 72 73 73 70 68 68 68 70 71 70 71 72 70 66 61 62 70 74 73 72 73 72 72 70 67 65 66 69 75 77 76
25 28 27 28 28 32 40 41 38 41 46 43 33 31 37 40 41 43 44 47 55 62 63 65 64 61 58 57 59 61 61 60 57 54 56 58 60 63 64 66 66 63 60 58 57 54 51 50 51 55 59 64 68 71 72 73 73 73 74 76 80 83 86 86 84 80 79 80 79 76 74 73 69 69 72 72 73 74 75 72 66 61 64 72 75 74 72 72 73 73 71 70 69 72 77 80 83
22 25 23 25 28 33 41 45 42 45 55 51 37 32 37 42 45 45 48 52 57 59 60 60 57 53 51 54 57 59 58 57 55 54 56 56 55 54 54 57 57 54 52 52 51 49 48 49 50 52 53 56 62 67 69 71 72 71 71 72 75 78 81 83 84 85 84 85 84 83 81 77 72 69 69 71 70 70 71 71 69 65 62 65 71 72 70 71 73 73 72 71 70 72 76 79 87
23 25 24 26 30 33 42 52 55 57 60 50 37 35 37 43 51 51 50 54 53 53 55 53 49 47 49 50 51 53 52 49 46 46 50 53 52 50 48 49 49 47 46 48 48 48 48 49 49 50 51 52 55 61 65 67 68 68 68 67 69 71 74 76 77 81 84 85 85 85 85 84 80 74 69 68 67 66 66 65 65 68 66 64 65 68 72 74 74 73 71 70 68 70 72 77 88
26 27 28 30 35 38 43 50 57 64 67 56 46 42 39 46 57 55 54 58 58 58 57 53 51 50 49 48 48 49 48 45 43 44 47 49 51 53 51 50 50 49 47 47 47 48 48 49 49 50 50 50 50 53 57 61 63 65 65 64 64 64 66 67 67 69 75 81 84 84 84 87 88 84 76 71 68 66 66 64 62 65 69 69 64 65 72 77 76 74 71 68 67 69 70 74 87
27 29 32 34 37 42 45 46 52 62 71 70 65 54 45 53 63 61 64 67 64 63 61 61 64 61 54 48 44 44 40 38 40 42 45 47 50 54 52 50 49 47 46 46 46 46 46 49 50 50 50 50 49 49 50 53 55 58 60 60 60 59 59 60 61 61 62 68 76 81 82 84 87 89 84 77 72 69 67 67 65 65 69 73 71 66 68 73 75 75 74 74 72 70 68 71 82
29 34 41 42 41 42 44 43 44 56 72 79 80 70 56 58 64 63 67 66 62 65 69 74 76 69 60 51 44 39 35 36 42 46 49 52 54 56 56 55 54 51 50 50 52 52 50 50 50 50 50 50 49 49 48 48 49 51 53 55 57 57 55 54 54 56 56 57 64 72 78 81 82 85 87 83 77 74 72 70 70 69 69 75 77 72 68 68 72 76 79 80 79 74 70 70 78
34 40 46 46 48 50 55 57 52 58 73 79 84 82 64 56 61 62 64 63 63 69 75 79 78 71 65 55 43 36 35 43 52 55 58 61 63 65 65 63 61 59 58 58 61 62 59 57 53 49 48 49 49 48 48 48 47 47 49 51 53 55 55 53 51 51 51 51 55 61 69 76 79 82 89 89 82 79 78 74 73 73 74 77 78 75 71 67 67 72 78 80 77 74 73 73 77